Location: Central Falls
(41.8900°N, 71.3929°W)
Time: 13:06:55
(UTC+00:00)

A-11 Canister half - Pass Details

Date: 15 December 2023
Orbit: 1512 x 1687 km, 47.2° (Epoch: 20 February)

Event Time Altitude Azimuth Distance (km) Brightness Sun altitude
Rises 06:06:46 0° 286° (WNW) 4,745 - -64.1°
Reaches altitude 10° 06:09:50 10° 289° (WNW) 3,783 - -63.7°
Maximum altitude 06:19:29 70° 13° (NNE) 1,708 - -62.2°
Exits shadow 06:28:45 13° 96° (E) 3,682 11.2 -60.8°
Drops below altitude 10° 06:29:30 10° 97° (E) 3,913 11.3 -60.6°
Sets 06:32:43 0° 100° (E) 4,915 12.0 -60.1°
